DAH1074 DAAG-LFQQ

Flight info

Callsign DAH1074
Flight time 2h 38m
Altitude 36000
Route PECES N853 LUMAS DCT SOFFY DCT MRM DCT MTL DCT ETREK DCT MADOT DCT MOPEM DCT CACHI DCT AVLON DCT OKRIX DCT BRY DCT CLM DCT KOPOR DCT PERON N874 CMB
Aircraft B738/M-SDE2E3FGHIRWXY/LB1

Departure

Time 2026-05-04 09:22
Airport Houari Boumediene Airport (DAAG)

Arrival

Time 2026-05-04 12:00
Airport Lille Airport (LFQQ)
Time Latitude Longitude Altitude Speed Heading
2026-05-04 08:35 36.69675 3.20606 70 ft 0 kts 18°
2026-05-04 09:14 36.69630 3.20585 68 ft 2 kts 38°
2026-05-04 09:14 36.69620 3.20573 68 ft 2 kts 51°
2026-05-04 09:14 36.69612 3.20559 68 ft 2 kts 64°
2026-05-04 09:14 36.69607 3.20542 68 ft 2 kts 78°
2026-05-04 09:15 36.69606 3.20528 68 ft 0 kts 89°
2026-05-04 09:15 36.69606 3.20520 68 ft 0 kts 91°
2026-05-04 09:17 36.69604 3.20658 69 ft 16 kts 90°
2026-05-04 09:18 36.69585 3.20775 69 ft 14 kts 126°
2026-05-04 09:18 36.69511 3.20828 70 ft 12 kts 162°
2026-05-04 09:18 36.69428 3.20860 70 ft 15 kts 163°
2026-05-04 09:18 36.69336 3.20898 70 ft 14 kts 162°
2026-05-04 09:19 36.69254 3.20933 70 ft 11 kts 159°
2026-05-04 09:19 36.69213 3.20952 70 ft 0 kts 160°
2026-05-04 09:20 36.69204 3.20955 70 ft 4 kts 163°
2026-05-04 09:20 36.69149 3.20967 71 ft 11 kts 168°
2026-05-04 09:20 36.69120 3.20928 71 ft 7 kts 266°
2026-05-04 09:20 36.69120 3.20916 71 ft 0 kts 269°
2026-05-04 09:21 36.69120 3.20894 70 ft 9 kts 271°
2026-05-04 09:21 36.69130 3.20531 69 ft 90 kts 271°
2026-05-04 09:21 36.69154 3.19544 68 ft 164 kts 270°
2026-05-04 09:22 36.69197 3.18271 850 ft 169 kts 271°
2026-05-04 09:22 36.69255 3.17031 1724 ft 169 kts 272°
2026-05-04 09:22 36.69470 3.15818 2236 ft 182 kts 293°
2026-05-04 09:22 36.70195 3.14708 2726 ft 198 kts 321°
2026-05-04 09:23 36.71272 3.14069 3182 ft 215 kts 343°
2026-05-04 09:23 36.72610 3.13945 3565 ft 238 kts
2026-05-04 09:23 36.73965 3.14705 4043 ft 256 kts 38°
2026-05-04 09:23 36.75045 3.16092 4647 ft 266 kts 51°
2026-05-04 09:25 36.83807 3.27646 9540 ft 320 kts 21°
2026-05-04 09:25 36.85582 3.28504 10257 ft 321 kts 13°
2026-05-04 09:26 36.87546 3.29226 10792 ft 333 kts 11°
2026-05-04 09:26 36.89537 3.29898 11224 ft 348 kts 11°
2026-05-04 09:26 36.91606 3.30617 11625 ft 364 kts 12°
2026-05-04 09:26 36.93810 3.31427 12022 ft 380 kts 13°
2026-05-04 09:27 36.96000 3.32267 12386 ft 394 kts 13°
2026-05-04 09:27 36.98279 3.33166 12972 ft 401 kts 14°
2026-05-04 09:27 37.00603 3.34101 13679 ft 404 kts 14°
2026-05-04 09:27 37.02927 3.35044 14312 ft 408 kts 14°
2026-05-04 09:28 37.05376 3.36040 15005 ft 412 kts 14°
2026-05-04 09:28 37.07841 3.37043 15621 ft 417 kts 14°
2026-05-04 09:28 37.10378 3.38079 16275 ft 421 kts 15°
2026-05-04 09:28 37.12936 3.39122 16906 ft 424 kts 14°
2026-05-04 09:29 37.15486 3.40163 17543 ft 427 kts 14°
2026-05-04 09:29 37.18002 3.41189 18132 ft 430 kts 14°
2026-05-04 09:29 37.20577 3.42239 18698 ft 434 kts 14°
2026-05-04 09:29 37.23156 3.43288 19256 ft 438 kts 14°
2026-05-04 09:30 37.25714 3.44325 19853 ft 440 kts 14°
2026-05-04 09:30 37.28302 3.45374 20410 ft 443 kts 14°
2026-05-04 09:30 37.30888 3.46423 20946 ft 446 kts 14°
2026-05-04 09:30 37.33539 3.47502 21489 ft 449 kts 14°
2026-05-04 09:31 37.36186 3.48582 22061 ft 450 kts 14°
2026-05-04 09:31 37.38848 3.49667 22556 ft 454 kts 14°
2026-05-04 09:31 37.41472 3.50737 23039 ft 456 kts 14°
2026-05-04 09:31 37.44203 3.51849 23502 ft 460 kts 14°
2026-05-04 09:32 37.46886 3.52940 24016 ft 462 kts 13°
2026-05-04 09:32 37.49646 3.54064 24469 ft 466 kts 13°
2026-05-04 09:34 37.68592 3.61825 27403 ft 486 kts 13°
2026-05-04 09:34 37.71351 3.62960 27846 ft 488 kts 13°
2026-05-04 09:34 37.74098 3.64090 28275 ft 489 kts 13°
2026-05-04 09:34 37.76876 3.65234 28579 ft 494 kts 14°
2026-05-04 09:35 37.79727 3.66410 29038 ft 494 kts 13°
2026-05-04 09:35 37.82455 3.67541 29737 ft 488 kts 13°
2026-05-04 09:35 37.85044 3.68614 30246 ft 486 kts 13°
2026-05-04 09:35 37.87436 3.69607 30641 ft 486 kts 13°
2026-05-04 09:37 38.06989 3.77730 33581 ft 483 kts 12°
2026-05-04 09:37 38.09841 3.78915 33933 ft 483 kts 12°
2026-05-04 09:38 38.12695 3.80104 34278 ft 483 kts 12°
2026-05-04 09:38 38.15542 3.81293 34599 ft 483 kts 12°
2026-05-04 09:38 38.18367 3.82474 34924 ft 482 kts 12°
2026-05-04 09:38 38.21197 3.83658 35276 ft 480 kts 12°
2026-05-04 09:39 38.24060 3.84858 35671 ft 478 kts 12°
2026-05-04 09:39 38.26884 3.86045 35964 ft 476 kts 12°
2026-05-04 09:39 38.32471 3.88386 36022 ft 481 kts 11°
2026-05-04 09:40 38.38171 3.90777 36027 ft 479 kts 11°
2026-05-04 09:40 38.43800 3.93140 36019 ft 479 kts 11°
2026-05-04 09:42 38.66859 3.98595 36000 ft 471 kts
2026-05-04 09:43 38.72642 3.99643 36003 ft 472 kts
2026-05-04 09:43 38.78447 4.00717 36002 ft 473 kts
2026-05-04 09:44 38.84248 4.01808 35999 ft 475 kts
2026-05-04 09:46 39.07593 4.06272 36007 ft 478 kts
2026-05-04 09:46 39.13441 4.07397 36002 ft 477 kts
2026-05-04 09:47 39.19238 4.08521 36003 ft 475 kts
2026-05-04 09:49 39.42582 4.13033 35999 ft 476 kts
2026-05-04 09:51 39.62672 4.16938 35998 ft 476 kts
2026-05-04 09:51 39.68433 4.18280 35995 ft 483 kts
2026-05-04 09:52 39.74025 4.21443 35997 ft 500 kts 29°
2026-05-04 09:52 39.78686 4.26922 35995 ft 508 kts 46°
2026-05-04 09:53 39.82062 4.33906 35995 ft 512 kts 68°
2026-05-04 09:53 39.82982 4.37894 35995 ft 511 kts 81°
2026-05-04 09:53 39.83399 4.41957 35992 ft 508 kts 88°
2026-05-04 09:54 39.83125 4.50078 35990 ft 498 kts 107°
2026-05-04 09:54 39.82216 4.53847 35988 ft 491 kts 118°
2026-05-04 09:54 39.80822 4.57374 35989 ft 483 kts 128°
2026-05-04 09:55 39.77293 4.63514 35988 ft 470 kts 141°
2026-05-04 09:55 39.75078 4.66009 35984 ft 460 kts 153°
2026-05-04 09:55 39.72710 4.67858 35983 ft 447 kts 162°
2026-05-04 09:56 39.67581 4.70322 35982 ft 430 kts 174°
2026-05-04 09:56 39.62418 4.71130 35987 ft 413 kts 191°
2026-05-04 09:57 39.57400 4.70071 35989 ft 404 kts 202°
2026-05-04 09:57 39.52874 4.67822 35994 ft 391 kts 215°
2026-05-04 09:58 39.48991 4.64139 36001 ft 384 kts 227°
2026-05-04 09:58 39.45785 4.59553 36002 ft 378 kts 237°
2026-05-04 10:00 39.41979 4.39247 36003 ft 385 kts 273°
2026-05-04 10:00 39.42275 4.36222 35998 ft 384 kts 272°
2026-05-04 10:02 39.37530 4.17309 36000 ft 382 kts 227°
2026-05-04 10:04 39.22007 4.09358 35999 ft 406 kts 194°
2026-05-04 10:04 39.19490 4.09281 35998 ft 417 kts 183°
2026-05-04 10:04 39.16925 4.09872 36003 ft 427 kts 173°
2026-05-04 10:04 39.14447 4.11013 36004 ft 439 kts 165°
2026-05-04 10:05 39.12003 4.12637 36003 ft 451 kts 158°
2026-05-04 10:05 39.07436 4.16831 35998 ft 462 kts 146°
2026-05-04 10:05 39.05477 4.19545 35995 ft 474 kts 135°
2026-05-04 10:06 39.03873 4.22735 35991 ft 485 kts 124°
2026-05-04 10:06 39.01737 4.29986 35989 ft 497 kts 109°
2026-05-04 10:08 39.05405 4.52341 35993 ft 506 kts 47°
2026-05-04 10:08 39.07538 4.55019 35997 ft 499 kts 32°
2026-05-04 10:08 39.10101 4.57070 36000 ft 490 kts 19°
2026-05-04 10:08 39.12826 4.58498 36000 ft 483 kts 11°
2026-05-04 10:09 39.18503 4.59813 36005 ft 469 kts 351°
2026-05-04 10:09 39.24176 4.59176 36003 ft 470 kts 343°
2026-05-04 10:10 39.29932 4.58332 36002 ft 481 kts 348°
2026-05-04 10:10 39.35766 4.58261 36005 ft 481 kts 353°
2026-05-04 10:11 39.41659 4.58526 36001 ft 487 kts 354°
2026-05-04 10:11 39.47618 4.58843 36004 ft 484 kts 354°
2026-05-04 10:12 39.53563 4.59120 35998 ft 484 kts 354°
2026-05-04 10:12 39.59488 4.59354 35995 ft 483 kts 353°
2026-05-04 10:13 39.65453 4.59571 35993 ft 484 kts 353°
2026-05-04 10:13 39.71381 4.59774 35993 ft 486 kts 353°
2026-05-04 10:14 39.77379 4.59976 35995 ft 485 kts 353°
2026-05-04 10:16 40.00873 4.60753 35993 ft 487 kts 353°
2026-05-04 10:16 40.06749 4.60949 35988 ft 487 kts 353°
2026-05-04 10:17 40.12682 4.61149 35987 ft 488 kts 353°
2026-05-04 10:19 40.36087 4.61932 35981 ft 490 kts 353°
2026-05-04 10:19 40.42081 4.62137 35979 ft 487 kts 353°
2026-05-04 10:20 40.48037 4.62348 35984 ft 487 kts 353°
2026-05-04 10:20 40.54006 4.62545 35990 ft 491 kts 353°
2026-05-04 10:21 40.60039 4.62747 35991 ft 490 kts 353°
2026-05-04 10:21 40.66088 4.62950 35994 ft 490 kts 353°
2026-05-04 10:22 40.75212 4.63257 35982 ft 496 kts 353°
2026-05-04 10:23 40.81244 4.63467 35984 ft 491 kts 353°
2026-05-04 10:25 41.05455 4.64285 35981 ft 495 kts 353°
2026-05-04 10:25 41.11415 4.64488 35982 ft 493 kts 353°
2026-05-04 10:26 41.17355 4.64690 35984 ft 495 kts 353°
2026-05-04 10:26 41.23269 4.64894 35984 ft 493 kts 353°
2026-05-04 10:27 41.29242 4.65100 35983 ft 497 kts 354°
2026-05-04 10:27 41.35114 4.65304 35983 ft 492 kts 354°
2026-05-04 10:28 41.41036 4.65508 35981 ft 496 kts 354°
2026-05-04 10:28 41.46928 4.65713 35980 ft 494 kts 354°
2026-05-04 10:29 41.52752 4.65916 35978 ft 494 kts 354°
2026-05-04 10:29 41.58580 4.66120 35981 ft 495 kts 354°
2026-05-04 10:30 41.64461 4.66324 35983 ft 493 kts 354°
2026-05-04 10:30 41.70250 4.66483 35979 ft 492 kts 353°
2026-05-04 10:31 41.76026 4.66050 35986 ft 484 kts 345°
2026-05-04 10:32 41.95640 4.61110 35978 ft 479 kts 341°
2026-05-04 10:33 42.01248 4.59632 35979 ft 481 kts 341°
2026-05-04 10:33 42.06891 4.58177 35977 ft 480 kts 341°
2026-05-04 10:34 42.12544 4.56725 35976 ft 483 kts 342°
2026-05-04 10:34 42.18045 4.55322 35974 ft 481 kts 342°
2026-05-04 10:35 42.23686 4.53880 35968 ft 483 kts 342°
2026-05-04 10:35 42.29374 4.52426 35967 ft 482 kts 342°
2026-05-04 10:36 42.35070 4.50967 35963 ft 483 kts 342°
2026-05-04 10:36 42.40778 4.49504 35969 ft 481 kts 342°
2026-05-04 10:37 42.46505 4.48031 35964 ft 484 kts 342°
2026-05-04 10:37 42.52132 4.46582 35970 ft 483 kts 342°
2026-05-04 10:39 42.71920 4.41469 35984 ft 482 kts 342°
2026-05-04 10:40 42.77494 4.40023 35982 ft 483 kts 343°
2026-05-04 10:40 42.83108 4.38560 35984 ft 482 kts 343°
2026-05-04 10:41 42.88764 4.37088 35980 ft 482 kts 343°
2026-05-04 10:41 42.94396 4.35619 35969 ft 482 kts 343°
2026-05-04 10:42 43.00011 4.34151 35962 ft 481 kts 342°
2026-05-04 10:42 43.05609 4.32685 35963 ft 481 kts 342°
2026-05-04 10:43 43.11192 4.31217 35959 ft 482 kts 342°
2026-05-04 10:45 43.33572 4.25313 35972 ft 484 kts 342°
2026-05-04 10:45 43.39193 4.23822 35974 ft 485 kts 343°
2026-05-04 10:46 43.44843 4.22324 35981 ft 483 kts 343°
2026-05-04 10:46 43.50497 4.20823 35986 ft 486 kts 343°
2026-05-04 10:47 43.56187 4.19306 35990 ft 485 kts 343°
2026-05-04 10:47 43.61835 4.17798 35990 ft 486 kts 343°
2026-05-04 10:49 43.84465 4.11729 35996 ft 486 kts 343°
2026-05-04 10:50 43.90163 4.10194 36002 ft 487 kts 343°
2026-05-04 10:52 44.12903 4.04031 36011 ft 489 kts 343°
2026-05-04 10:52 44.18611 4.02477 36011 ft 488 kts 343°
2026-05-04 10:54 44.41386 3.96247 35988 ft 490 kts 343°
2026-05-04 10:56 44.64354 3.89914 35987 ft 491 kts 344°
2026-05-04 10:57 44.70065 3.88334 35994 ft 491 kts 344°
2026-05-04 10:57 44.75840 3.86732 35987 ft 491 kts 344°
2026-05-04 10:58 44.81614 3.85123 35993 ft 492 kts 345°
2026-05-04 10:58 44.87345 3.83527 36000 ft 492 kts 345°
2026-05-04 10:59 44.93105 3.81917 35991 ft 492 kts 345°
2026-05-04 10:59 44.98888 3.80300 35994 ft 491 kts 345°
2026-05-04 11:00 45.04667 3.78676 36005 ft 492 kts 345°
2026-05-04 11:02 45.27622 3.72204 35985 ft 492 kts 345°
2026-05-04 11:05 45.70460 3.59983 35966 ft 496 kts 345°
2026-05-04 11:06 45.76135 3.58349 35967 ft 496 kts 346°
2026-05-04 11:06 45.81867 3.56694 35976 ft 497 kts 346°
2026-05-04 11:10 46.21978 3.45025 35989 ft 498 kts 346°
2026-05-04 11:12 46.44823 3.38298 35964 ft 498 kts 346°
2026-05-04 11:12 46.50552 3.36602 35968 ft 498 kts 346°
2026-05-04 11:13 46.56209 3.34923 35970 ft 499 kts 345°
2026-05-04 11:13 46.61867 3.33244 35967 ft 497 kts 345°
2026-05-04 11:14 46.62820 3.32962 35966 ft 498 kts 345°
2026-05-04 11:16 46.90487 3.24690 35965 ft 499 kts 346°
2026-05-04 11:16 46.96163 3.22979 35970 ft 499 kts 345°
2026-05-04 11:17 47.01917 3.21243 35975 ft 499 kts 345°
2026-05-04 11:19 47.24658 3.14347 35965 ft 498 kts 346°
2026-05-04 11:19 47.30370 3.12605 35955 ft 499 kts 346°
2026-05-04 11:20 47.36102 3.10851 35953 ft 499 kts 346°
2026-05-04 11:20 47.41852 3.09089 35959 ft 499 kts 346°
2026-05-04 11:22 47.64888 3.01998 35961 ft 500 kts 346°
2026-05-04 11:23 47.70657 3.00214 35962 ft 499 kts 346°
2026-05-04 11:25 47.90704 2.93974 35962 ft 498 kts 345°
2026-05-04 11:25 47.96447 2.92177 35962 ft 499 kts 346°
2026-05-04 11:27 48.22229 2.84057 35947 ft 498 kts 346°
2026-05-04 11:28 48.27972 2.82235 35940 ft 499 kts 346°
2026-05-04 11:28 48.33717 2.80409 35952 ft 497 kts 346°
2026-05-04 11:29 48.39445 2.78584 35940 ft 498 kts 346°
2026-05-04 11:29 48.45346 2.76700 35943 ft 497 kts 346°
2026-05-04 11:33 48.87214 2.63222 35964 ft 494 kts 346°
2026-05-04 11:33 48.93158 2.61288 35870 ft 497 kts 345°
2026-05-04 11:34 48.96136 2.60316 35569 ft 500 kts 346°
2026-05-04 11:34 48.99104 2.59347 35185 ft 496 kts 345°
2026-05-04 11:34 49.02010 2.58401 35007 ft 488 kts 346°
2026-05-04 11:34 49.04922 2.57451 34429 ft 489 kts 346°
2026-05-04 11:35 49.07784 2.56517 34092 ft 482 kts 346°
2026-05-04 11:35 49.10603 2.55595 33661 ft 478 kts 346°
2026-05-04 11:35 49.13421 2.54672 33003 ft 479 kts 346°
2026-05-04 11:35 49.16281 2.53731 32622 ft 473 kts 346°
2026-05-04 11:36 49.19131 2.52795 32091 ft 470 kts 346°
2026-05-04 11:36 49.21964 2.51863 31650 ft 465 kts 346°
2026-05-04 11:36 49.24770 2.50942 31196 ft 461 kts 346°
2026-05-04 11:36 49.27599 2.50014 30707 ft 458 kts 346°
2026-05-04 11:37 49.30363 2.49104 30221 ft 454 kts 346°
2026-05-04 11:37 49.33133 2.48188 29756 ft 449 kts 347°
2026-05-04 11:37 49.35853 2.47287 29278 ft 445 kts 347°
2026-05-04 11:37 49.38609 2.46370 28749 ft 442 kts 347°
2026-05-04 11:38 49.41312 2.45467 28261 ft 438 kts 346°
2026-05-04 11:38 49.44034 2.44569 27765 ft 434 kts 347°
2026-05-04 11:38 49.46769 2.43950 27271 ft 431 kts 355°
2026-05-04 11:38 49.49495 2.43939 26758 ft 428 kts
2026-05-04 11:39 49.52136 2.44704 26279 ft 424 kts 17°
2026-05-04 11:39 49.54617 2.46083 25774 ft 421 kts 25°
2026-05-04 11:40 49.67701 2.58860 22853 ft 399 kts 36°
2026-05-04 11:41 49.69751 2.61060 22413 ft 395 kts 36°
2026-05-04 11:41 49.71838 2.63297 21960 ft 391 kts 35°
2026-05-04 11:41 49.73850 2.65440 21527 ft 387 kts 35°
2026-05-04 11:41 49.75894 2.67609 21094 ft 383 kts 34°
2026-05-04 11:42 49.77774 2.69600 20692 ft 379 kts 34°
2026-05-04 11:42 49.79648 2.71583 20269 ft 376 kts 34°
2026-05-04 11:42 49.81493 2.73536 19854 ft 373 kts 34°
2026-05-04 11:42 49.83305 2.75458 19471 ft 369 kts 34°
2026-05-04 11:43 49.85105 2.77368 19065 ft 365 kts 34°
2026-05-04 11:43 49.86907 2.79278 18670 ft 361 kts 34°
2026-05-04 11:43 49.88704 2.81183 18270 ft 358 kts 34°
2026-05-04 11:43 49.90463 2.83053 17838 ft 355 kts 34°
2026-05-04 11:44 49.92234 2.84916 17413 ft 353 kts 33°
2026-05-04 11:44 49.94010 2.86704 16996 ft 350 kts 32°
2026-05-04 11:44 49.95765 2.88419 16587 ft 347 kts 32°
2026-05-04 11:44 49.97586 2.90175 16157 ft 345 kts 32°
2026-05-04 11:45 49.99390 2.91911 15736 ft 342 kts 32°
2026-05-04 11:45 50.01123 2.93590 15311 ft 340 kts 32°
2026-05-04 11:45 50.02874 2.95301 14885 ft 338 kts 33°
2026-05-04 11:45 50.04611 2.97006 14477 ft 335 kts 33°
2026-05-04 11:46 50.06316 2.98687 14075 ft 333 kts 33°
2026-05-04 11:46 50.08038 3.00390 13636 ft 331 kts 33°
2026-05-04 11:46 50.09716 3.02050 13225 ft 329 kts 33°
2026-05-04 11:46 50.11375 3.03689 12871 ft 325 kts 33°
2026-05-04 11:47 50.13021 3.05316 12681 ft 312 kts 33°
2026-05-04 11:47 50.14541 3.06824 12430 ft 302 kts 33°
2026-05-04 11:47 50.16060 3.08337 12200 ft 291 kts 33°
2026-05-04 11:47 50.17480 3.09750 11905 ft 286 kts 33°
2026-05-04 11:48 50.19001 3.11262 11556 ft 285 kts 33°
2026-05-04 11:48 50.20554 3.12807 11205 ft 284 kts 33°
2026-05-04 11:48 50.22042 3.14294 10870 ft 283 kts 33°
2026-05-04 11:48 50.23401 3.15807 10536 ft 282 kts 37°
2026-05-04 11:49 50.24808 3.17557 10208 ft 281 kts 39°
2026-05-04 11:49 50.26104 3.19242 9890 ft 280 kts 39°
2026-05-04 11:49 50.27226 3.20709 9629 ft 279 kts 39°
2026-05-04 11:50 50.29636 3.23825 9069 ft 276 kts 39°
2026-05-04 11:50 50.30865 3.25407 8779 ft 274 kts 39°
2026-05-04 11:50 50.32061 3.26950 8552 ft 270 kts 39°
2026-05-04 11:50 50.33226 3.28463 8293 ft 268 kts 39°
2026-05-04 11:51 50.34494 3.30119 7984 ft 267 kts 39°
2026-05-04 11:51 50.35725 3.31727 7712 ft 265 kts 39°
2026-05-04 11:51 50.36925 3.33287 7424 ft 263 kts 39°
2026-05-04 11:51 50.38191 3.34924 7003 ft 266 kts 38°
2026-05-04 11:52 50.39495 3.36368 6556 ft 268 kts 28°
2026-05-04 11:52 50.40978 3.37264 6093 ft 268 kts 14°
2026-05-04 11:52 50.42600 3.37781 5651 ft 266 kts 10°
2026-05-04 11:52 50.44203 3.38198 5157 ft 267 kts 10°
2026-05-04 11:53 50.45781 3.38633 4652 ft 268 kts 11°
2026-05-04 11:53 50.47375 3.39116 4208 ft 266 kts 12°
2026-05-04 11:53 50.48933 3.39615 3981 ft 255 kts 12°
2026-05-04 11:53 50.50433 3.39999 3829 ft 246 kts
2026-05-04 11:55 50.59301 3.36236 2865 ft 175 kts 306°
2026-05-04 11:55 50.59676 3.34647 2750 ft 173 kts 272°
2026-05-04 11:56 50.59563 3.32935 2713 ft 168 kts 263°
2026-05-04 11:56 50.59414 3.31333 2645 ft 160 kts 262°
2026-05-04 11:56 50.59245 3.29805 2523 ft 152 kts 260°
2026-05-04 11:56 50.59066 3.28359 2364 ft 148 kts 260°
2026-05-04 11:57 50.58880 3.26932 2216 ft 148 kts 259°
2026-05-04 11:57 50.58689 3.25511 2052 ft 150 kts 259°
2026-05-04 11:57 50.58493 3.24079 1914 ft 144 kts 259°
2026-05-04 11:57 50.58301 3.22690 1957 ft 148 kts 259°
2026-05-04 11:58 50.58100 3.21246 1961 ft 148 kts 259°
2026-05-04 11:58 50.57903 3.19839 1927 ft 150 kts 259°
2026-05-04 11:58 50.57695 3.18363 1655 ft 150 kts 259°
2026-05-04 11:58 50.57497 3.16930 1332 ft 147 kts 258°
2026-05-04 11:59 50.57292 3.15465 966 ft 147 kts 257°
2026-05-04 11:59 50.57089 3.14019 608 ft 147 kts 258°
2026-05-04 11:59 50.56881 3.12608 306 ft 142 kts 259°
2026-05-04 11:59 50.56710 3.11286 135 ft 131 kts 256°
2026-05-04 12:00 50.56546 3.10178 144 ft 95 kts 256°
2026-05-04 12:00 50.56484 3.09740 148 ft 0 kts 259°